Wind_Speed
33 31 30 29 27 27 25 25 24 23 25 33 41 36 38 37 37 34 30 26 22 20 14 9 10 14 11 9 11 12 7 13 8 5 2 3 3 4 5 6 4 3 4 6 8 7 7 10 8 9 10 13 14 15
36 35 34 32 29 28 27 25 24 22 22 41 44 37 36 36 35 36 31 27 22 19 15 10 11 19 15 6 6 9 9 10 8 7 5 3 6 6 7 4 8 6 9 4 7 7 8 10 13 12 12 12 14 16
40 38 37 35 33 32 28 26 26 21 23 40 44 40 34 36 33 35 32 27 23 21 15 9 17 20 17 8 5 7 9 12 12 12 9 5 5 6 6 8 12 13 15 16 12 14 17 16 15 13 16 17 18 20
43 41 40 38 37 35 32 28 27 24 25 36 41 40 35 36 32 34 31 26 23 21 17 22 21 22 15 10 7 6 8 13 15 15 14 12 11 11 12 13 17 15 15 13 16 18 19 18 20 20 22 22 23 24
46 44 43 42 40 37 35 33 29 26 26 34 43 37 37 34 30 32 31 27 22 20 24 26 22 13 9 9 7 7 10 14 17 19 18 16 18 15 16 19 18 11 13 15 15 12 13 12 12 13 14 15 17 19
50 48 46 44 43 39 38 36 29 27 31 32 44 36 36 34 27 33 32 24 27 26 30 29 20 18 10 8 9 10 12 16 22 22 23 19 16 14 12 17 14 11 10 10 12 12 11 12 12 13 14 15 16 18
54 52 50 47 45 41 39 38 32 28 31 32 41 37 37 31 24 28 27 29 29 28 30 21 16 4 4 5 7 10 13 20 22 24 19 19 16 17 23 26 18 16 15 12 12 12 12 13 14 14 15 16 19 21
58 55 53 50 47 43 41 39 34 31 32 35 34 35 37 34 25 27 26 31 33 28 22 7 9 9 6 1 6 9 14 19 20 17 18 18 17 17 11 15 12 12 16 14 11 10 11 13 14 14 15 17 19 21
61 59 57 53 49 45 42 40 35 36 32 39 38 38 40 34 25 27 29 33 32 25 16 15 12 7 6 2 7 12 17 16 15 15 19 16 15 9 18 19 17 12 12 15 11 9 9 11 14 15 17 18 19 21
64 61 60 57 51 48 43 41 39 39 36 38 41 39 39 32 24 28 34 35 14 7 9 12 14 9 4 3 7 14 9 8 14 11 16 15 20 21 16 14 16 17 18 16 12 9 8 10 14 16 17 20 21 22
63 64 62 60 54 49 44 42 41 38 38 38 40 42 36 27 24 28 15 7 5 3 3 11 11 7 5 7 14 10 11 11 8 11 8 11 27 14 19 18 17 17 20 21 14 11 11 13 14 19 21 23 24 25
52 59 64 60 57 50 46 44 43 40 36 40 39 39 31 20 16 9 7 8 7 6 7 2 8 13 18 20 17 12 11 8 8 13 9 15 23 23 18 21 18 17 22 22 16 14 15 17 20 25 28 27 27 27
47 49 60 60 58 52 47 46 44 38 35 42 40 28 11 10 14 9 10 11 8 9 5 4 6 11 19 18 16 11 8 11 15 11 14 21 23 26 24 16 18 20 23 23 18 17 20 23 25 28 30 28 28 28
45 44 50 58 55 56 47 46 41 34 41 37 25 15 11 11 11 16 17 11 10 7 7 12 16 15 26 27 14 8 11 10 9 15 31 26 20 15 18 25 21 17 24 24 21 21 26 29 29 29 29 28 28 27
42 47 47 53 57 53 50 43 33 40 42 34 17 13 18 18 20 15 13 16 14 16 19 23 28 27 25 17 11 11 8 10 12 20 15 14 18 27 29 25 20 22 25 26 26 26 31 33 31 31 29 28 28 28
40 50 48 47 52 52 42 31 40 41 39 33 23 17 16 21 18 16 16 18 23 27 31 34 29 18 15 10 12 13 10 17 22 18 22 26 30 30 30 28 22 28 32 33 33 34 35 32 31 31 30 29 29 28
49 52 46 44 44 41 27 40 43 40 28 25 28 31 31 27 26 28 31 28 28 33 35 35 22 14 9 11 14 18 28 30 30 32 32 31 34 35 34 31 26 31 35 36 38 37 34 33 32 30 30 29 29 28
50 45 36 34 29 36 42 44 43 33 31 38 31 26 26 30 29 29 30 35 33 34 35 37 28 23 18 21 26 30 32 32 32 35 36 36 38 38 36 31 26 30 37 41 36 35 34 33 32 30 28 28 27 27
38 31 28 32 40 42 48 47 46 26 30 33 33 28 28 29 32 34 38 34 32 35 33 30 17 20 26 32 35 35 34 34 34 35 37 38 38 37 36 33 31 31 32 32 33 34 33 32 31 29 27 26 25 26
31 27 29 35 34 41 42 28 28 36 34 34 33 34 35 34 34 35 34 33 31 27 24 29 33 33 32 32 32 32 33 34 35 36 35 36 36 36 34 31 30 29 31 32 32 31 31 30 27 26 24 23 24 25
37 32 28 30 27 28 27 14 22 23 22 27 27 28 31 33 32 29 28 22 21 25 27 28 29 30 29 30 31 31 31 33 34 35 35 34 32 29 27 26 27 29 31 30 29 28 27 25 24 23 22 23 23 23
31 30 27 25 27 28 30 22 18 18 20 23 24 27 27 28 25 17 18 20 22 24 26 26 25 25 26 29 29 31 33 31 29 28 28 26 22 21 21 22 23 23 24 24 24 23 22 22 22 21 21 22 22 22
24 23 25 26 24 25 20 32 33 31 22 19 21 21 15 14 15 16 16 16 17 19 24 26 27 28 27 28 28 24 23 21 20 21 22 23 25 26 25 23 22 20 19 19 19 20 20 20 19 19 20 21 20 19
23 24 25 17 19 12 15 17 21 19 16 13 10 10 12 13 13 15 19 21 22 23 24 24 23 24 24 23 21 21 22 23 25 26 26 25 24 23 20 17 16 16 16 17 18 19 19 18 19 19 19 19 18 17
22 17 9 11 11 10 10 12 12 10 10 10 11 9 7 10 14 18 21 22 21 21 20 19 20 20 19 21 25 29 30 29 27 25 23 21 20 17 15 15 16 16 17 17 17 17 17 18 18 18 18 17 16 15
12 8 7 9 10 8 7 5 6 6 6 6 6 7 11 14 12 10 13 14 15 16 17 19 20 26 33 35 31 28 25 23 20 18 16 16 16 16 16 16 16 17 17 17 17 17 18 18 17 17 16 16 15 15
7 5 9 10 8 7 8 7 6 6 6 6 10 11 9 5 7 9 10 11 14 20 27 32 31 28 24 23 22 20 18 17 16 16 15 15 15 15 16 17 18 18 17 17 18 18 18 17 17 16 15 15 15 15
8 11 10 9 8 6 5 5 7 7 6 7 7 5 5 4 8 14 20 25 26 23 22 21 21 20 19 19 18 17 17 17 16 16 16 16 17 18 19 19 19 18 19 19 19 18 17 17 16 15 15 15 15 15
11 8 4 3 3 4 5 5 6 6 7 8 10 11 13 14 15 15 16 15 15 15 17 19 20 20 20 19 19 19 18 18 18 19 19 20 21 21 21 20 20 19 18 17 17 16 16 15 15 14 14 15 15 15
3 0 1 1 0 1 1 1 3 4 5 5 6 7 7 7 8 9 11 13 16 17 18 18 18 18 18 18 18 20 20 20 21 21 21 21 21 21 20 19 17 16 15 15 14 13 13 13 13 13 14 13 13 13
6 5 5 5 5 5 4 5 5 5 7 6 6 7 7 7 8 10 10 14 19 22 23 23 24 24 24 24 23 21 21 20 19 19 18 18 18 17 17 16 15 14 13 12 12 12 11 12 11 11 11 12 12 12
9 9 8 8 8 8 7 6 6 6 6 6 8 8 9 10 11 13 17 21 24 26 28 28 27 27 28 28 27 26 23 21 20 19 18 17 16 16 16 16 15 14 14 13 13 13 12 12 12 11 11 12 13 13
12 11 10 11 11 10 8 6 6 5 5 7 8 9 11 12 14 16 19 21 24 26 26 27 27 27 26 25 24 23 22 21 21 22 22 20 18 17 18 18 17 16 16 16 15 15 14 14 14 14 14 15 15 15
Wind_Direction
271 277 282 288 296 304 310 316 321 326 327 330 335 342 343 346 346 350 351 344 339 342 342 356 2 358 344 352 14 12 9 11 1 347 325 305 282 282 281 272 286 251 214 206 213 214 245 213 204 206 218 232 234 237
266 270 274 280 287 294 301 307 312 314 320 325 331 335 339 342 342 343 345 347 340 338 330 305 326 334 328 310 347 7 10 8 2 2 339 296 274 261 271 270 247 252 233 226 227 232 224 212 230 227 237 239 241 248
262 265 270 275 281 286 292 295 303 301 309 320 327 327 326 333 337 332 336 339 337 334 334 313 322 327 315 263 288 345 355 358 351 344 334 304 282 283 275 276 273 270 254 248 250 248 243 247 249 254 256 255 256 257
260 263 266 270 275 279 284 286 289 290 294 313 322 321 321 332 332 327 331 330 334 325 325 324 322 318 298 246 244 311 339 349 346 335 323 311 302 293 278 273 278 276 278 274 269 264 261 254 255 260 263 265 266 266
258 260 263 266 270 273 279 282 280 282 282 304 319 316 314 328 331 327 330 327 326 332 324 323 320 318 305 225 242 286 318 332 339 330 319 308 306 294 288 284 282 275 270 265 276 283 280 282 277 275 273 276 277 275
258 258 260 263 266 269 273 277 275 277 281 297 317 309 303 322 326 322 325 323 318 323 329 329 316 311 250 234 250 284 303 317 322 320 313 303 300 288 272 271 293 288 269 261 267 269 275 282 287 287 289 288 289 290
255 256 258 260 263 265 269 272 268 270 274 293 310 305 306 318 322 318 318 320 312 309 315 318 305 283 176 228 264 294 304 311 313 310 306 304 299 279 277 285 302 272 258 253 258 268 275 276 279 283 284 285 287 288
252 253 255 256 258 261 265 267 267 264 265 290 296 297 306 310 311 313 305 309 309 306 303 275 261 237 236 228 312 317 319 313 311 304 307 307 302 291 296 327 319 290 248 237 253 268 276 285 291 294 292 290 288 289
248 250 252 252 253 257 259 261 263 257 259 290 286 295 299 302 305 302 307 305 301 290 272 248 229 211 201 288 329 329 333 316 309 300 295 301 296 292 313 316 309 290 229 229 245 254 268 281 292 297 298 297 295 294
246 247 250 250 250 252 254 256 259 252 259 285 289 293 292 304 301 298 301 305 291 285 236 214 191 187 216 302 321 329 310 292 281 284 291 287 301 338 320 319 307 279 245 235 241 251 270 287 294 292 296 297 294 293
243 245 247 247 248 248 249 250 250 246 259 280 282 283 290 303 296 294 280 252 253 236 204 184 181 190 249 297 307 298 301 294 270 279 276 282 305 319 316 310 310 285 248 237 237 256 286 301 309 307 307 298 295 294
238 246 244 244 247 241 244 245 245 247 272 277 277 281 283 291 277 240 242 234 215 199 160 133 234 264 289 295 291 283 270 262 255 275 274 285 307 310 310 309 306 286 251 235 240 271 294 309 314 314 306 299 297 296
243 247 240 242 244 238 242 242 244 258 268 269 269 267 270 240 235 219 222 221 201 176 184 260 291 300 308 303 300 267 248 243 267 252 265 285 299 302 302 303 308 292 249 233 251 282 300 306 301 298 300 295 292 295
247 247 246 234 237 240 236 240 246 259 254 260 248 235 223 218 220 222 234 233 206 207 249 269 274 284 299 293 274 245 242 253 233 248 277 290 290 293 302 307 303 280 239 238 262 288 301 293 289 293 296 293 291 292
250 247 248 234 230 236 230 239 249 251 248 237 231 219 217 220 219 226 229 233 244 262 270 282 291 286 286 268 252 235 227 225 241 266 280 273 292 306 308 308 293 269 248 256 269 286 290 286 288 292 294 291 288 288
248 241 242 239 236 237 233 237 236 236 234 234 225 212 204 201 205 228 244 257 269 271 270 281 286 272 257 223 219 214 226 247 272 274 280 285 294 297 295 295 286 260 262 266 270 277 285 285 289 291 292 290 288 287
234 227 239 238 228 224 218 227 220 223 222 230 240 238 229 230 249 266 261 277 283 271 273 277 269 262 229 228 232 239 254 273 273 278 284 286 290 292 291 289 280 259 261 265 266 277 283 287 287 287 289 288 286 286
222 229 231 235 212 200 205 211 212 211 229 235 242 254 253 257 262 267 270 284 287 279 277 269 265 248 243 262 268 270 271 270 274 279 284 286 288 290 292 291 277 263 255 263 271 276 282 286 284 285 284 283 283 285
218 220 222 207 206 209 199 210 216 223 235 246 250 256 257 257 266 273 276 280 277 273 269 267 258 259 272 280 282 279 279 281 283 282 283 287 289 290 291 288 280 272 269 269 271 278 281 281 282 282 281 280 282 285
204 208 207 207 201 198 206 214 227 235 246 247 251 251 257 263 269 275 273 269 266 264 269 270 271 274 280 283 282 282 283 284 286 288 290 290 291 291 290 286 279 270 267 270 274 276 275 277 279 277 276 278 282 287
199 200 200 195 198 208 210 216 219 226 237 244 249 251 258 271 270 261 262 264 269 270 270 275 279 281 282 281 282 284 288 291 293 293 294 293 293 290 286 282 277 272 270 270 268 269 272 275 275 273 276 281 286 288
180 177 179 191 201 213 220 215 220 233 233 241 250 262 259 255 254 254 274 273 269 273 276 279 281 282 281 282 287 291 293 294 293 293 292 291 290 288 288 285 280 274 269 267 267 269 271 271 271 275 280 284 287 289
175 181 188 195 206 213 226 228 237 242 245 247 246 243 239 258 279 282 266 267 267 275 278 278 279 281 284 290 291 290 290 292 295 297 298 297 294 290 286 283 279 273 269 265 267 270 270 271 273 278 282 284 286 286
193 190 193 201 208 207 211 206 219 225 225 224 229 264 270 270 274 268 267 274 275 275 273 276 280 289 293 293 291 291 293 297 301 301 298 292 288 282 277 273 269 266 266 267 269 268 269 274 279 281 282 282 281 280
179 179 186 186 184 188 186 193 200 211 241 261 262 257 262 281 281 280 276 273 271 271 277 286 292 291 290 292 299 304 305 304 301 297 291 284 279 273 270 270 270 269 268 267 269 273 278 280 279 279 278 277 276 277
175 170 178 182 194 206 205 198 207 209 210 237 263 271 287 291 276 257 263 271 278 287 292 295 297 302 306 307 307 304 301 298 293 289 286 283 282 281 280 277 275 274 276 277 279 280 279 278 277 274 272 270 271 270
135 141 163 166 170 181 181 188 211 244 270 273 277 281 283 249 250 260 283 293 303 304 305 306 307 308 308 307 306 304 301 297 292 288 286 285 284 284 284 284 284 283 282 281 280 278 276 274 272 270 268 267 266 265
125 133 149 158 176 193 214 247 266 268 261 259 267 258 254 246 280 296 302 304 308 314 318 321 322 322 321 317 312 307 302 298 294 291 288 287 287 289 290 289 287 285 282 280 277 275 271 269 268 266 264 263 263 262
116 122 134 166 221 252 257 258 259 257 268 274 283 287 284 290 295 303 314 321 326 327 330 330 328 324 320 317 313 307 301 296 292 290 289 289 290 291 290 288 286 283 280 277 274 271 268 266 264 263 261 260 261 261
88 41 248 264 226 124 21 325 321 323 325 328 331 325 322 324 331 335 338 343 347 343 335 327 324 323 321 317 314 310 306 302 298 295 293 291 290 289 288 287 285 282 279 275 271 267 266 265 263 262 261 261 262 263
99 101 96 95 86 74 50 28 23 24 14 17 29 15 358 1 352 350 348 339 335 333 332 328 321 316 315 315 309 303 305 305 306 304 301 298 296 293 289 285 280 276 273 271 269 267 264 262 263 261 263 266 268 269
85 83 75 68 59 43 35 39 32 28 59 43 18 17 4 353 348 344 338 335 333 333 332 329 327 321 315 310 306 301 294 288 291 296 300 301 299 295 290 284 278 274 271 268 267 267 265 261 262 263 265 267 269 270
76 71 64 62 53 43 40 41 39 58 44 25 17 4 357 353 352 345 338 335 335 336 336 337 334 328 324 321 318 315 309 301 291 285 284 287 290 290 287 286 283 279 273 267 262 259 260 262 265 268 271 273 273 273
Height
3106 3105 3104 3102 3101 3098 3096 3094 3091 3086 3083 3081 3079 3076 3070 3063 3056 3052 3047 3043 3042 3040 3037 3035 3033 3032 3031 3029 3026 3024 3022 3019 3016 3015 3013 3012 3011 3010 3009 3008 3007 3007 3007 3007 3008 3007 3007 3004 3006 3008 3007 3006 3008 3009
3097 3097 3096 3095 3093 3092 3090 3088 3086 3082 3078 3077 3075 3071 3069 3062 3055 3050 3045 3041 3038 3037 3035 3034 3031 3029 3028 3027 3026 3023 3022 3019 3017 3016 3014 3011 3009 3008 3006 3007 3006 3007 3006 3004 3005 3002 3001 3000 3001 3002 3003 3003 3004 3006
3086 3087 3088 3087 3086 3085 3083 3082 3080 3076 3074 3071 3070 3066 3064 3060 3054 3048 3042 3038 3036 3033 3031 3030 3028 3026 3023 3023 3023 3023 3020 3018 3016 3014 3012 3011 3009 3008 3008 3004 3003 3002 3002 3000 3000 2997 2998 2998 2998 2999 3000 2998 2998 3000
3075 3077 3078 3078 3078 3077 3076 3074 3073 3070 3068 3066 3064 3060 3058 3056 3050 3044 3039 3035 3031 3028 3026 3027 3023 3020 3017 3018 3019 3019 3018 3016 3014 3012 3009 3007 3008 3005 3002 3002 2999 2999 2997 2995 2993 2992 2992 2993 2994 2995 2993 2991 2992 2992
3063 3066 3067 3068 3068 3068 3068 3067 3066 3063 3060 3059 3058 3055 3052 3050 3046 3040 3036 3031 3028 3028 3023 3019 3017 3014 3012 3013 3015 3015 3015 3013 3010 3008 3006 3004 3001 3000 2997 2994 2991 2992 2991 2991 2990 2990 2988 2988 2988 2987 2986 2986 2986 2985
3050 3053 3055 3058 3058 3058 3058 3058 3058 3057 3054 3052 3052 3049 3046 3044 3040 3034 3031 3027 3022 3020 3017 3014 3012 3011 3010 3010 3010 3011 3010 3009 3008 3003 3000 2997 2997 2996 2990 2986 2986 2986 2986 2986 2985 2985 2985 2985 2984 2983 2982 2981 2979 2978
3036 3039 3042 3045 3048 3048 3049 3049 3048 3048 3046 3046 3043 3041 3039 3038 3035 3030 3027 3022 3017 3015 3013 3010 3007 3006 3006 3008 3008 3007 3006 3004 3003 2998 2993 2992 2991 2989 2982 2977 2978 2978 2979 2980 2980 2980 2980 2979 2980 2980 2978 2977 2975 2973
3021 3024 3027 3031 3035 3036 3038 3039 3039 3039 3037 3037 3034 3032 3031 3029 3028 3023 3018 3014 3010 3008 3006 3004 3004 3004 3005 3004 3005 3003 3002 2999 2996 2994 2990 2987 2986 2984 2977 2976 2974 2971 2972 2974 2975 2975 2975 2974 2973 2972 2972 2971 2969 2966
3003 3008 3012 3016 3021 3024 3027 3028 3028 3028 3028 3030 3026 3023 3021 3021 3020 3016 3010 3004 3000 3002 2997 2995 2997 3000 3001 3000 3000 2998 2996 2994 2991 2988 2985 2984 2982 2979 2977 2972 2971 2970 2969 2970 2970 2970 2970 2969 2968 2967 2966 2965 2963 2960
2985 2991 2996 3001 3006 3010 3014 3016 3016 3017 3019 3019 3017 3015 3010 3013 3011 3007 3000 2995 2990 2988 2986 2987 2990 2993 2997 2996 2995 2996 2990 2988 2984 2984 2980 2975 2972 2975 2970 2968 2965 2965 2965 2965 2965 2965 2964 2964 2963 2962 2960 2959 2957 2954
2966 2974 2980 2985 2990 2995 3001 3003 3003 3006 3008 3009 3007 3006 3003 3003 3002 2998 2992 2989 2988 2986 2985 2987 2988 2989 2991 2992 2992 2991 2987 2983 2979 2977 2975 2968 2965 2967 2965 2964 2960 2959 2959 2960 2960 2960 2959 2958 2956 2954 2951 2951 2949 2946
2949 2955 2962 2969 2976 2981 2984 2989 2991 2995 2998 2999 2999 2995 2996 2997 2993 2991 2986 2984 2982 2982 2982 2985 2988 2988 2988 2987 2986 2984 2982 2979 2974 2972 2970 2960 2961 2959 2958 2957 2954 2953 2952 2954 2954 2953 2952 2950 2948 2946 2944 2942 2940 2938
2934 2939 2943 2951 2961 2966 2971 2974 2980 2986 2989 2988 2988 2985 2987 2987 2983 2980 2979 2978 2976 2978 2979 2980 2982 2983 2982 2982 2980 2979 2974 2971 2969 2965 2960 2956 2954 2953 2952 2950 2949 2946 2945 2946 2947 2946 2945 2943 2941 2940 2937 2934 2932 2929
2919 2923 2927 2934 2945 2951 2957 2963 2970 2976 2978 2978 2977 2974 2975 2974 2970 2970 2972 2974 2974 2973 2974 2975 2976 2977 2975 2974 2972 2969 2966 2964 2959 2954 2950 2950 2948 2948 2947 2945 2944 2941 2940 2939 2939 2939 2937 2936 2934 2932 2929 2925 2923 2921
2904 2909 2914 2919 2926 2936 2943 2953 2961 2964 2965 2965 2964 2959 2956 2961 2962 2964 2966 2968 2968 2968 2969 2969 2968 2968 2966 2965 2961 2959 2957 2951 2945 2944 2944 2943 2942 2941 2939 2938 2938 2936 2934 2932 2931 2929 2929 2927 2924 2922 2920 2917 2915 2913
2892 2900 2899 2906 2913 2923 2934 2944 2947 2951 2951 2951 2946 2945 2949 2953 2957 2959 2961 2962 2962 2961 2961 2960 2958 2956 2954 2953 2949 2947 2944 2939 2939 2937 2937 2936 2934 2932 2930 2929 2929 2928 2926 2924 2922 2920 2919 2918 2915 2912 2910 2908 2905 2904
2881 2884 2892 2900 2905 2914 2926 2930 2935 2937 2939 2933 2930 2936 2942 2947 2949 2951 2953 2953 2952 2951 2951 2950 2948 2947 2943 2941 2938 2936 2933 2934 2932 2930 2928 2926 2924 2923 2920 2919 2918 2917 2916 2914 2912 2911 2909 2908 2905 2903 2900 2898 2897 2895
2868 2879 2889 2893 2898 2906 2912 2917 2922 2924 2922 2920 2924 2929 2934 2937 2940 2942 2942 2941 2940 2939 2938 2938 2936 2933 2932 2929 2928 2928 2926 2924 2922 2921 2919 2917 2914 2912 2910 2908 2906 2905 2904 2902 2902 2900 2899 2897 2895 2893 2891 2889 2888 2886
2864 2874 2881 2887 2889 2897 2904 2909 2912 2911 2911 2914 2917 2922 2926 2928 2930 2932 2931 2930 2930 2928 2927 2926 2926 2921 2921 2919 2918 2916 2914 2913 2911 2911 2909 2906 2903 2901 2898 2897 2895 2894 2893 2892 2891 2889 2888 2886 2885 2883 2881 2880 2879 2878
2860 2867 2875 2881 2885 2892 2898 2903 2903 2904 2904 2907 2911 2913 2917 2919 2921 2921 2920 2920 2919 2918 2917 2916 2914 2912 2911 2909 2907 2905 2904 2902 2899 2897 2895 2893 2890 2888 2886 2884 2883 2882 2881 2881 2880 2879 2877 2876 2875 2874 2872 2872 2871 2869
2856 2865 2872 2876 2880 2887 2892 2893 2896 2897 2897 2900 2903 2905 2907 2909 2910 2911 2911 2910 2910 2909 2908 2907 2905 2903 2901 2899 2897 2895 2893 2891 2888 2886 2882 2880 2878 2877 2875 2873 2872 2871 2870 2870 2869 2868 2868 2867 2866 2865 2864 2864 2863 2862
2856 2861 2866 2871 2876 2881 2886 2888 2891 2892 2893 2894 2896 2897 2898 2900 2901 2903 2902 2901 2901 2901 2899 2898 2896 2894 2892 2890 2887 2885 2882 2880 2877 2875 2873 2870 2869 2867 2866 2864 2862 2861 2860 2860 2859 2859 2859 2858 2858 2857 2857 2856 2855 2854
2857 2861 2865 2869 2874 2878 2880 2883 2885 2886 2887 2887 2889 2891 2892 2893 2894 2895 2894 2894 2893 2893 2891 2889 2887 2885 2884 2882 2879 2876 2874 2872 2869 2867 2865 2863 2861 2859 2857 2855 2854 2853 2852 2852 2852 2852 2851 2851 2851 2850 2850 2849 2848 2848
2856 2859 2862 2866 2869 2870 2872 2874 2877 2880 2881 2883 2884 2885 2886 2887 2888 2887 2887 2887 2886 2884 2882 2880 2879 2877 2875 2873 2872 2870 2868 2864 2861 2859 2856 2854 2852 2850 2848 2847 2846 2846 2846 2845 2845 2845 2844 2844 2844 2843 2842 2842 2842 2841
2855 2858 2861 2861 2863 2866 2868 2871 2873 2875 2877 2879 2880 2880 2881 2882 2882 2881 2879 2877 2876 2875 2874 2872 2870 2869 2868 2866 2863 2862 2859 2856 2852 2850 2848 2846 2844 2843 2841 2841 2840 2840 2840 2839 2839 2838 2838 2837 2837 2836 2836 2836 2836 2836
2851 2854 2858 2858 2861 2865 2866 2869 2871 2873 2875 2876 2876 2877 2877 2877 2875 2873 2870 2870 2869 2869 2868 2867 2866 2864 2860 2856 2854 2852 2849 2846 2844 2842 2841 2840 2839 2837 2836 2836 2835 2835 2834 2833 2832 2832 2831 2831 2830 2830 2830 2830 2830 2830
2852 2855 2857 2859 2861 2864 2866 2869 2871 2871 2871 2872 2871 2872 2872 2871 2868 2867 2866 2866 2866 2863 2862 2860 2857 2854 2851 2848 2846 2844 2842 2840 2839 2837 2836 2835 2834 2832 2832 2831 2830 2829 2827 2827 2826 2826 2825 2825 2824 2824 2824 2824 2824 2824
2853 2856 2859 2860 2862 2864 2866 2867 2867 2868 2868 2868 2868 2869 2868 2867 2866 2865 2864 2862 2859 2857 2855 2852 2850 2848 2845 2842 2841 2839 2837 2835 2833 2832 2831 2829 2828 2827 2825 2824 2823 2822 2821 2820 2820 2819 2819 2818 2818 2818 2818 2818 2819 2819
2856 2858 2860 2860 2861 2862 2863 2864 2864 2865 2865 2864 2864 2864 2863 2862 2862 2860 2857 2856 2854 2853 2850 2848 2846 2843 2840 2838 2836 2834 2831 2830 2828 2827 2825 2823 2821 2820 2819 2817 2816 2815 2814 2813 2813 2812 2812 2812 2812 2812 2812 2812 2813 2813
2857 2857 2858 2859 2860 2860 2862 2862 2862 2861 2860 2860 2859 2859 2859 2858 2857 2855 2854 2853 2851 2849 2848 2846 2843 2840 2837 2834 2831 2827 2825 2823 2821 2820 2818 2816 2815 2813 2812 2810 2809 2808 2807 2807 2806 2806 2806 2806 2806 2806 2806 2807 2807 2807
2858 2859 2859 2860 2860 2860 2860 2859 2859 2858 2858 2857 2858 2858 2857 2856 2855 2854 2853 2851 2849 2846 2843 2840 2837 2834 2830 2827 2825 2822 2819 2817 2814 2813 2811 2809 2808 2807 2805 2804 2803 2802 2802 2802 2801 2801 2801 2801 2801 2802 2802 2802 2802 2802
2860 2860 2860 2859 2859 2859 2858 2858 2858 2858 2858 2857 2857 2856 2855 2854 2853 2852 2850 2847 2844 2840 2837 2834 2830 2827 2822 2818 2815 2812 2811 2810 2808 2806 2805 2803 2802 2801 2799 2798 2797 2797 2797 2797 2797 2797 2797 2797 2797 2797 2798 2798 2798 2798
2861 2861 2861 2860 2860 2859 2859 2859 2858 2858 2858 2857 2856 2855 2854 2853 2851 2850 2847 2843 2840 2837 2833 2828 2824 2818 2814 2811 2807 2804 2802 2800 2799 2798 2797 2796 2796 2795 2793 2792 2792 2792 2792 2791 2791 2791 2792 2792 2792 2792 2792 2792 2792 2792